Location: Oshawa
(43.9000°N, 78.8670°W)
Time: 09:10:06
(UTC-04:00)

Cosmos 1821 Rocket - Visible Passes

Search period start: 25 August 2016 00:00
Search period end: 04 September 2016 00:00
Orbit: 944 x 1006 km, 82.9° (Epoch: 23 August)

Date Brightness Start Highest point End Pass type
(mag) Time Alt. Az. Time Alt. Az. Time Alt. Az.
25 Aug 5.5 21:34:17 10° SW 21:39:51 36° WNW 21:45:26 10° N visible
26 Aug 6.5 22:01:03 10° WSW 22:05:32 21° WNW 22:10:01 10° NNW visible
27 Aug 4.2 20:38:49 10° SSW 20:44:54 74° W 20:51:01 10° N visible
27 Aug 7.0 22:29:23 10° W 22:31:25 12° WNW 22:33:28 10° NW visible
28 Aug 7.1 05:49:18 10° NNE 05:52:59 16° ENE 05:56:41 10° E visible
28 Aug 5.3 21:04:37 10° SW 21:10:21 42° WNW 21:16:06 10° N visible
29 Aug 6.3 21:31:08 10° WSW 21:35:58 24° WNW 21:40:50 10° NNW visible
30 Aug 7.0 21:58:49 10° W 22:01:49 14° WNW 22:04:49 10° NNW visible
31 Aug 7.3 05:20:22 10° NNE 05:23:24 14° ENE 05:26:27 10° E visible
31 Aug 5.1 20:34:59 10° SSW 20:40:51 49° WNW 20:46:46 10° N visible
01 Sep 6.7 05:44:18 10° NNE 05:49:14 24° ENE 05:54:12 10° ESE visible
01 Sep 6.2 21:01:17 10° SW 21:06:26 28° WNW 21:11:37 10° NNW visible
02 Sep 5.6 06:09:02 10° N 06:14:53 41° ENE 06:20:46 10° SE visible
02 Sep 7.0 21:28:33 10° WSW 21:32:13 16° WNW 21:35:53 10° NNW visible
03 Sep 7.4 04:51:40 10° NE 04:53:48 12° ENE 04:55:56 10° E visible
